184  
ASUS42 KCAE 241910  
RWRCAE  
REGIONAL WEATHER ROUNDUP  
NATIONAL WEATHER SERVICE COLUMBIA SC  
300 PM EDT MON SEP 24 2018  
 
NOTE: "FAIR" INDICATES FEW OR NO CLOUDS BELOW 12,000 FEET WITH NO  
SIGNIFICANT WEATHER AND/OR S TO VISIBILITY
.  
 
NOT ALL STATIONS ARE QUALITY CONTROLLED BY THE NATIONAL  
WEATHER SERVICE. USE DATA WITH CAUTION...ESPECIALLY  
DEWPOINT OBSERVATIONS.  
 
SCZ001>056-GAZ040-063>065-077-242000-   
..UPSTATE SOUTH CAROLINA
 
 
 
CITY SKY/WX TMP DP RH WIND PRES REMARKS
 
ANDERSON CLOUDY 75 69 81 E9 30.18F  
LIBERTY CLOUDY 71 71 100 E6 30.20F  
SPARTANBURG CLOUDY 70 64 83 NE5 30.21F  
CLEMSON CLOUDY 70 69 97 E7 30.20F FOG  
GREENVILLE LGT RAIN 71 69 93 E8 30.22F FOG  
GREENWOOD CLOUDY 76 68 76 NE6 30.19  
GREER CLOUDY 70 68 93 NE10 30.21F  
ROCK HILL CLOUDY 75 68 78 VRB5 30.22F  
CHESTER CLOUDY 73 64 73 E8 30.21F  
LAURENS CLOUDY 73 68 83 E5 30.20F  
 
   
..CENTRAL SOUTH CAROLINA
 
 
 
CITY SKY/WX TMP DP RH WIND PRES REMARKS
 
COLUMBIA APT PTSUNNY 82 71 69 E12 30.15F  
COLUMBIA OWENS CLOUDY 81 69 67 E6 30.16F  
MCENTIRE ANGB PTSUNNY 80 70 71 NE3 30.16F  
ORANGEBURG FAIR 84 70 62 NE12 30.14F  
SUMTER SHAW PTSUNNY 80 69 69 E13 30.16F  
NEWBERRY CLOUDY 77 66 69 NE7 30.21F  
AIKEN CLOUDY 81 68 65 E8 30.17F  
BARNWELL MOCLDY 84 70 61 NE9 30.13F  
MANNING FAIR 77 68 73 NE8 30.15F  
CAMDEN CLOUDY 75 68 78 NE7 30.19F  
LANCASTER N/A N/A N/A N/A MISG N/A  
WINNSBORO CLOUDY 77 68 73 NE7 30.18F  
 
   
..EASTERN AND COASTAL SOUTH CAROLINA
 
 
 
CITY SKY/WX TMP DP RH WIND PRES REMARKS
 
MYRTLE BEACH CLOUDY 83 72 69 E10 30.16F  
N MYRTLE BCH CLOUDY 83 73 72 NW3 30.15F  
CONWAY MOCLDY 81 72 74 NE6 30.15F  
MARION CLOUDY 79 70 73 NE9 30.18F  
HARTSVILLE MOCLDY 79 68 69 NE8 30.18F  
FLORENCE CLOUDY 79 70 74 NE8 30.18F  
DARLINGTON CLOUDY 78 69 73 NE8 30.19F  
CHARLESTON APT FAIR 87 74 64 E8 30.11F HX 95  
WALTERBORO MOCLDY 84 70 61 E6 30.12F  
BEAUFORT FAIR 89 74 60 E9 30.10 HX 98  
 
   
..EASTERN GEORGIA
 
 
 
CITY SKY/WX TMP DP RH WIND PRES REMARKS
 
AUGUSTA BUSH F CLOUDY 85 73 67 NE6 30.11F  
AUGUSTA DANIEL CLOUDY 81 73 76 NE6 30.14F  
THOMSON CLOUDY 83 70 65 SE10 30.17F  
CLAXTON CLOUDY 85 73 68 E8 30.10F THUNDER  
SYLVANIA CLOUDY 87 70 57 SE5 30.11F  
STATESBORO TSTM 76 74 93 S7 30.11S  
SAVANNAH PTSUNNY 90 70 51 E17 30.09F HX 95  
 
   
..SOUTHERN NORTH CAROLINA
 
 
 
CITY SKY/WX TMP DP RH WIND PRES REMARKS
 
CHARLOTTE CLOUDY 73 67 81 N9 30.22F  
MONROE CLOUDY 75 65 70 E8 30.20F  
WADESBORO MOCLDY 78 67 66 E6 30.21F  
ROCKINGHAM MOCLDY 78 68 71 NE5 30.20F  
ASHEVILLE CLOUDY 69 64 84 SE10 30.25F  
 

 
 
 
CLICK HERE TO GO TO PREVIOUS BULLETINS.

The Nexlab SC Page
The Nexlab GA Page Main Text Page